TimeEDT,TemperatureF,Dew PointF,Humidity,Sea Level PressureIn,VisibilityMPH,Wind Direction,Wind SpeedMPH,Gust SpeedMPH,PrecipitationIn,Events,Conditions,WindDirDegrees,DateUTC
2:53 AM,68.0,66.0,93,30.00,10.0,Calm,Calm,-,N/A,,Overcast,0,2013-08-30 06:53:00
3:53 AM,68.0,66.0,93,29.99,10.0,SSE,3.5,-,N/A,,Overcast,150,2013-08-30 07:53:00
4:53 AM,68.0,66.9,96,29.99,10.0,Calm,Calm,-,N/A,,Overcast,0,2013-08-30 08:53:00
5:53 AM,68.0,66.9,96,30.00,10.0,Calm,Calm,-,N/A,,Overcast,0,2013-08-30 09:53:00
6:07 AM,68.0,66.2,94,30.00,9.0,Calm,Calm,-,N/A,,Overcast,0,2013-08-30 10:07:00
6:17 AM,68.0,66.2,94,30.00,10.0,Calm,Calm,-,N/A,,Overcast,0,2013-08-30 10:17:00
6:40 AM,68.0,66.2,94,30.00,10.0,Calm,Calm,-,N/A,,Overcast,0,2013-08-30 10:40:00
6:48 AM,68.0,66.2,94,30.00,10.0,Calm,Calm,-,N/A,,Overcast,0,2013-08-30 10:48:00
6:53 AM,68.0,66.9,96,30.01,10.0,North,-9999.0,-,N/A,,Overcast,0,2013-08-30 10:53:00
7:53 AM,68.0,66.9,96,30.01,10.0,Calm,Calm,-,N/A,,Overcast,0,2013-08-30 11:53:00
2:53 PM,82.0,69.1,65,29.91,9.0,Variable,4.6,-,N/A,,Scattered Clouds,0,2013-08-30 18:53:00
3:53 PM,81.0,68.0,65,29.90,8.0,Variable,4.6,-,N/A,,Scattered Clouds,0,2013-08-30 19:53:00
4:53 PM,82.0,68.0,62,29.89,9.0,Calm,Calm,-,N/A,,Partly Cloudy,0,2013-08-30 20:53:00
5:53 PM,81.0,69.1,67,29.87,8.0,Calm,Calm,-,N/A,,Clear,0,2013-08-30 21:53:00
6:53 PM,79.0,70.0,74,29.86,8.0,Calm,Calm,-,N/A,,Clear,0,2013-08-30 22:53:00
7:53 PM,75.9,71.1,85,29.86,8.0,Calm,Calm,-,N/A,,Clear,0,2013-08-30 23:53:00
8:53 PM,72.0,70.0,93,29.86,4.0,Calm,Calm,-,N/A,,Clear,0,2013-08-31 00:53:00
9:53 PM,71.1,69.1,93,29.87,4.0,Calm,Calm,-,N/A,,Clear,0,2013-08-31 01:53:00
10:15 PM,71.6,69.8,94,29.88,1.2,Calm,Calm,-,N/A,,Clear,0,2013-08-31 02:15:00
10:20 PM,69.8,69.8,100,29.88,0.8,Calm,Calm,-,N/A,,Mist,0,2013-08-31 02:20:00
10:26 PM,69.8,69.8,100,29.88,1.2,Calm,Calm,-,N/A,,Clear,0,2013-08-31 02:26:00
10:38 PM,69.8,69.8,100,29.88,0.8,Calm,Calm,-,N/A,,Mist,0,2013-08-31 02:38:00
10:45 PM,69.8,69.8,100,29.88,1.2,Calm,Calm,-,N/A,,Partly Cloudy,0,2013-08-31 02:45:00
10:53 PM,70.0,69.1,97,29.88,1.2,Calm,Calm,-,N/A,,Clear,0,2013-08-31 02:53:00
11:16 PM,69.8,69.8,100,29.88,2.5,Calm,Calm,-,N/A,,Clear,0,2013-08-31 03:16:00
11:26 PM,69.8,69.8,100,29.87,1.2,Calm,Calm,-,N/A,,Clear,0,2013-08-31 03:26:00
11:38 PM,69.8,69.8,100,29.87,2.5,Calm,Calm,-,N/A,,Clear,0,2013-08-31 03:38:00
11:46 PM,69.8,69.8,100,29.87,4.0,Calm,Calm,-,0.00,Rain,Light Rain,0,2013-08-31 03:46:00
11:53 PM,71.1,69.1,93,29.87,5.0,Calm,Calm,-,0.00,Rain,Light Rain,0,2013-08-31 03:53:00